Location: Gloden
(48.4833°N, 15.3167°E)
Time: 11:48:31
(UTC+00:00)

Cosmos 2266 Rocket - Pass Details

Date: 15 December 2019
Orbit: 933 x 1009 km, 82.9° (Epoch: 26 January)

Event Time Altitude Azimuth Distance (km) Brightness Sun altitude
Rises 04:19:45 0° 352° (N) 3,687 6.9 -22.7°
Reaches altitude 10° 04:22:21 10° 356° (N) 2,724 6.2 -22.2°
Maximum altitude 04:28:31 62° 77° (ENE) 1,071 4.4 -21.2°
Drops below altitude 10° 04:34:32 10° 158° (SSE) 2,658 6.7 -20.3°
Sets 04:37:01 0° 162° (SSE) 3,591 7.4 -19.9°
